Regional Weather Roundup
Issued by NWS Green Bay, WI

Home | Current Version | Previous Version | Text Only | Print | Product List | Glossary On
Versions: 1 2 3 4 5 6 7 8 9 10 11 12 13 14 15 16 17 18 19 20 21 22 23 24 25 26 27 28 29 30 31 32 33 34 35 36 37 38 39 40 41 42 43 44 45 46 47 48 49 50
000
ASUS43 KGRB 151959
RWRGRB

NORTH-CENTRAL AND NORTHEAST WISCONSIN REGIONAL WEATHER ROUNDUP
NATIONAL WEATHER SERVICE GREEN BAY WI
300 PM CDT MON SEP 15 2014

WIZ005-009-010>012-018-019-152100-
NORTH CENTRAL WISCONSIN

CITY           SKY/WX    TMP DP  RH WIND       PRES   REMARKS
IRONWOOD       PTSUNNY   54  37  54 NW12G18   30.13S
MANITOWISH WTR NOT AVBL
ARBOR VITAE    PTSUNNY   57  37  48 NW8       30.13S
EAGLE RIVER    NOT AVBL
LAND O LAKES   NOT AVBL
RHINELANDER    PTSUNNY   55  41  59 NW6       30.13S
PHILLIPS       NOT AVBL
ANTIGO         NOT AVBL
TOMAHAWK       NOT AVBL
MERRILL        NOT AVBL
$$

WIZ013-073-152100-
NORTHEAST WISCONSIN

CITY           SKY/WX    TMP DP  RH WIND       PRES   REMARKS
IRON MOUNTAIN  PTSUNNY   57  41  55 NW9G20    30.08S
MARINETTE      CLOUDY    61  43  51 W7        30.08S
$$

WIZ017-030-035>037-045-152100-
CENTRAL WISCONSIN

CITY           SKY/WX    TMP DP  RH WIND       PRES   REMARKS
MEDFORD        NOT AVBL
WAUSAU         PTSUNNY   60  39  45 NW8       30.10F
MOSINEE        NOT AVBL
MARSHFIELD     PTSUNNY   59  41  51 NW10      30.13F
WISC RAPIDS    LGT RAIN  58  51  78 SW9       30.14F
STEVENS POINT  NOT AVBL
WAUPACA        NOT AVBL
SHAWANO        NOT AVBL
CLINTONVILLE   NOT AVBL
$$

WIZ038-039-048-051-152100-
FOX VALLEY

CITY           SKY/WX    TMP DP  RH WIND       PRES   REMARKS
NWS GREEN BAY  CLOUDY    58  49  72 SW8       30.11F
APPLETON       PTSUNNY   54  46  76 W8        30.13S
OSHKOSH        LGT RAIN  55  51  86 W3        30.12F
FOND DU LAC    LGT RAIN  53  50  89 W5        30.13F
$$

WIZ022-050-052-152100-
EAST CENTRAL WISCONSIN

CITY           SKY/WX    TMP DP  RH WIND       PRES   REMARKS
STURGEON BAY   CLOUDY    57  46  67 W7        30.10F
MANITOWOC      NOT AVBL
SHEBOYGAN      LGT RAIN  55  51  86 NW3       30.12S
$$

LMZ563-521-522-541>543-152100-
LAKESHORE

STATION/POSITION TIME  TEMP    WIND        PRES    VSBY  WAVE
                       AIR SEA DIR/SP/G                  HT/PER
                 (UTC) (F)     (DEG/KT/KT) (MB)    (MI)  (FT/S)
SHEBOYGAN LKSHOR 1900   53 49  350/  3/  4 1020.5S
KEWAUNEE LKSHORE 1900   56     260/  7/  8 1018.6F
NORTHPORT PIER   1900   56     140/  8/  8 1018.6F
N MID LAKE BUOY  1900   55 60  240/  8/  8 1019.4F         1/ 5
S GREEN BAY BUOY 1900   58     VRB 10/ 10  1020.1F
CHAMBERS ISLAND  1900   58     180/  3/ 10 1019.0F
MENOMINEE LKSHOR 1900   58     180/  7/ 10 1019.4F
$$



USA.gov is the U.S. government's official web portal to all federal, state and local government web resources and services.